GW2624 Weather Reports


Display with metric or nautical units.
time (UTC)temp
F
wind
direction
speed
MPH
gust
MPH
rain 1hr
in
rain 24hr
in
rain mn
in
humidity
%
barometer
mb
20260510215905 73 114 5.0 13.0 0.00 0.00 0.00 26 1008.4
20260510214904 73 158 5.0 13.0 0.00 0.00 0.00 25 1008.4
20260510214405 73 134 3.0 13.0 0.00 0.00 0.00 23 1008.3
20260510213404 73 123 5.0 10.0 0.00 0.00 0.00 22 1008.6
20260510212904 74 126 3.0 10.0 0.00 0.00 0.00 23 1008.5
20260510210904 71 98 3.0 14.0 0.00 0.00 0.00 28 1008.7
20260510210405 71 146 7.0 14.0 0.00 0.00 0.00 28 1008.7
20260510205405 70 147 5.0 13.0 0.00 0.00 0.00 28 1008.9
20260510204905 69 74 6.0 13.0 0.00 0.00 0.00 30 1008.8
20260510204404 67 145 5.0 13.0 0.00 0.00 0.00 35 1009.1
20260510203904 65 117 6.0 15.0 0.00 0.00 0.00 40 1009.3
20260510202905 63 139 7.0 15.0 0.00 0.00 0.00 41 1009.6
20260510201904 64 138 4.0 9.0 0.00 0.00 0.00 41 1009.3
20260510200405 66 275 3.0 16.0 0.00 0.00 0.00 30 1009.9
20260510195904 68 239 2.0 13.0 0.00 0.00 0.00 34 1009.6
20260510195404 70 265 5.0 13.0 0.00 0.00 0.00 26 1009.3
20260510194904 71 327 3.0 9.0 0.00 0.00 0.00 23 1008.9
20260510194405 71 203 1.0 10.0 0.00 0.00 0.00 22 1008.7
20260510193905 72 149 3.0 10.0 0.00 0.00 0.00 21 1008.6
20260510192905 74 163 3.0 8.0 0.00 0.00 0.00 22 1008.4
20260510192405 74 190 5.0 12.0 0.00 0.00 0.00 21 1008.5
20260510191405 73 31 4.0 12.0 0.00 0.00 0.00 21 1008.4
20260510190904 73 259 5.0 12.0 0.00 0.00 0.00 23 1008.5
20260510190405 73 156 3.0 12.0 0.00 0.00 0.00 22 1008.6
20260510185905 73 190 5.0 12.0 0.00 0.00 0.00 23 1008.7
20260510184904 73 274 1.0 5.0 0.00 0.00 0.00 25 1008.6
20260510184404 73 115 2.0 5.0 0.00 0.00 0.00 22 1008.6
20260510183404 73 199 3.0 12.0 0.00 0.00 0.00 24 1008.6
20260510181905 72 218 2.0 12.0 0.00 0.00 0.00 23 1008.5
20260510181404 71 121 3.0 12.0 0.00 0.00 0.00 25 1008.5
20260510180404 71 178 4.0 12.0 0.00 0.00 0.00 26 1008.5
20260510174404 71 235 4.0 13.0 0.00 0.00 0.00 27 1008.6
20260510173904 71 161 3.0 10.0 0.00 0.00 0.00 26 1008.7
20260510172904 70 193 2.0 12.0 0.00 0.00 0.00 27 1008.6
20260510171904 70 172 3.0 13.0 0.00 0.00 0.00 27 1008.7
20260510171404 70 162 3.0 13.0 0.00 0.00 0.00 29 1008.7
20260510170905 70 150 5.0 12.0 0.00 0.00 0.00 29 1008.7
20260510165904 69 169 3.0 8.0 0.00 0.00 0.00 29 1008.7
20260510165404 69 119 3.0 8.0 0.00 0.00 0.00 30 1008.7
20260510164904 68 121 2.0 8.0 0.00 0.00 0.00 30 1008.6
20260510164405 68 161 2.0 5.0 0.00 0.00 0.00 30 1008.6
20260510163905 69 140 2.0 5.0 0.00 0.00 0.00 29 1008.6
20260510161404 67 12 1.0 6.0 0.00 0.00 0.00 32 1008.7
20260510155905 66 191 1.0 5.0 0.00 0.00 0.00 32 1008.7
20260510155404 66 213 2.0 6.0 0.00 0.00 0.00 32 1008.8
20260510154904 65 240 2.0 6.0 0.00 0.00 0.00 31 1008.7
20260510154405 65 222 2.0 5.0 0.00 0.00 0.00 33 1008.7
20260510153405 65 9 1.0 8.0 0.00 0.00 0.00 33 1008.7
20260510152905 65 199 2.0 8.0 0.00 0.00 0.00 32 1008.7
20260510152405 65 150 1.0 3.0 0.00 0.00 0.00 32 1008.7
20260510151405 64 218 2.0 3.0 0.00 0.00 0.00 31 1008.6
20260510142905 60 247 1.0 3.0 0.00 0.00 0.00 34 1008.2
20260510140905 57 221 0.0 3.0 0.00 0.00 0.00 39 1008.0
20260510135404 54 209 0.0 2.0 0.00 0.00 0.00 50 1007.8
20260510134904 53 146 1.0 2.0 0.00 0.00 0.00 48 1007.8
20260510133904 52 146 1.0 2.0 0.00 0.00 0.00 54 1007.8
20260510133405 52 0 1.0 2.0 0.00 0.00 0.00 54 1007.8
20260510132404 52 0 0.0 2.0 0.00 0.00 0.00 50 1007.8
20260510131904 52 146 0.0 0.0 0.00 0.00 0.00 49 1007.7
20260510131405 52 146 0.0 2.0 0.00 0.00 0.00 49 1007.7
20260510130904 53 146 0.0 2.0 0.00 0.00 0.00 48 1007.5
20260510125405 53 146 0.0 2.0 0.00 0.00 0.00 45 1007.3
20260510123905 54 146 0.0 0.0 0.00 0.00 0.00 44 1007.2
20260510115904 58 0 0.0 1.0 0.00 0.00 0.00 35 1006.9
20260510114905 59 0 0.0 2.0 0.00 0.00 0.00 33 1006.8
20260510114404 59 0 1.0 3.0 0.00 0.00 0.00 33 1006.9
20260510113904 59 0 1.0 3.0 0.00 0.00 0.00 32 1006.8
20260510110404 58 0 2.0 3.0 0.00 0.00 0.00 32 1006.4
20260510104904 57 0 0.0 2.0 0.00 0.00 0.00 36 1006.2
20260510104404 57 0 0.0 2.0 0.00 0.00 0.00 36 1006.1
20260510103905 58 0 1.0 2.0 0.00 0.00 0.00 35 1006.1
20260510103405 58 0 0.0 3.0 0.00 0.00 0.00 34 1006.0
20260510102904 58 0 1.0 3.0 0.00 0.00 0.00 35 1006.0
20260510102404 58 0 2.0 3.0 0.00 0.00 0.00 33 1005.8
20260510101405 58 0 0.0 5.0 0.00 0.00 0.00 34 1006.0
20260510100904 57 0 2.0 5.0 0.00 0.00 0.00 33 1006.0
20260510095904 56 0 3.0 5.0 0.00 0.00 0.00 39 1005.9
20260510095405 55 0 2.0 3.0 0.00 0.00 0.00 40 1005.8
20260510094904 55 0 2.0 3.0 0.00 0.00 0.00 41 1005.7
20260510094405 54 0 1.0 3.0 0.00 0.00 0.00 40 1005.6
20260510092906 53 136 0.0 2.0 0.00 0.00 0.00 44 1005.7
20260510091905 53 136 0.0 3.0 0.00 0.00 0.00 45 1005.5
20260510091405 53 136 0.0 3.0 0.00 0.00 0.00 48 1005.2
20260510090904 52 136 1.0 3.0 0.00 0.00 0.00 44 1005.1
20260510085404 52 136 0.0 2.0 0.00 0.00 0.00 46 1005.4
20260510084404 52 136 0.0 0.0 0.00 0.00 0.00 46 1005.4
20260510083405 52 136 0.0 0.0 0.00 0.00 0.00 46 1005.4
20260510082904 52 136 0.0 0.0 0.00 0.00 0.00 44 1005.3
20260510081904 52 136 0.0 0.0 0.00 0.00 0.00 45 1005.2
20260510081405 52 136 0.0 2.0 0.00 0.00 0.00 44 1005.2
20260510080904 53 136 0.0 2.0 0.00 0.00 0.00 44 1005.1
20260510075905 53 136 0.0 0.0 0.00 0.00 0.00 45 1005.1
20260510073404 53 136 0.0 2.0 0.00 0.00 0.00 41 1005.2
20260510072905 53 136 1.0 2.0 0.00 0.00 0.00 41 1005.2
20260510072404 53 136 0.0 2.0 0.00 0.00 0.00 41 1005.2
20260510071905 54 136 1.0 2.0 0.00 0.00 0.00 41 1005.2
20260510070404 54 136 0.0 2.0 0.00 0.00 0.00 38 1005.0
20260510065905 55 136 0.0 0.0 0.00 0.00 0.00 39 1005.0
20260510065404 55 136 0.0 0.0 0.00 0.00 0.00 40 1005.1
20260510063404 56 136 0.0 0.0 0.00 0.00 0.00 34 1005.1
20260510062904 56 136 0.0 0.0 0.00 0.00 0.00 34 1005.0
20260510062404 57 136 0.0 0.0 0.00 0.00 0.00 34 1005.0
20260510061404 57 136 0.0 2.0 0.00 0.00 0.00 33 1004.9
20260510054904 60 94 0.0 0.0 0.00 0.00 0.00 29 1004.7
20260510054404 60 94 0.0 0.0 0.00 0.00 0.00 29 1004.7
20260510053404 61 94 0.0 3.0 0.00 0.00 0.00 26 1004.7
20260510052905 61 94 1.0 3.0 0.00 0.00 0.00 26 1004.7
20260510051404 63 142 0.0 1.0 0.00 0.00 0.00 25 1004.9
20260510050404 63 142 0.0 0.0 0.00 0.00 0.00 25 1004.9
20260510045905 63 142 0.0 0.0 0.00 0.00 0.00 24 1004.8
20260510043904 63 111 1.0 3.0 0.00 0.00 0.00 26 1004.8
20260510042904 62 153 1.0 2.0 0.00 0.00 0.00 26 1004.8
20260510042404 62 153 0.0 1.0 0.00 0.00 0.00 26 1004.8
20260510041904 63 153 0.0 3.0 0.00 0.00 0.00 25 1004.7
20260510041405 63 153 1.0 3.0 0.00 0.00 0.00 23 1004.7
20260510040405 64 141 0.0 0.0 0.00 0.00 0.00 22 1004.5
20260510034405 66 141 0.0 2.0 0.00 0.00 0.00 19 1004.5
20260510033904 66 141 0.0 2.0 0.00 0.00 0.00 19 1004.4
20260510033404 66 141 0.0 1.0 0.00 0.00 0.00 18 1004.4
20260510032905 67 141 0.0 1.0 0.00 0.00 0.00 19 1004.3
20260510031404 67 141 0.0 1.0 0.00 0.00 0.00 18 1004.0
20260510030904 68 141 0.0 2.0 0.00 0.00 0.00 17 1003.9
20260510025405 69 141 0.0 1.0 0.00 0.00 0.00 16 1003.6
20260510023904 70 141 0.0 2.0 0.00 0.00 0.00 14 1003.2
20260510022905 71 155 0.0 2.0 0.00 0.00 0.00 13 1003.1
20260510021405 72 152 0.0 3.0 0.00 0.00 0.00 13 1002.9
20260510020904 72 128 1.0 2.0 0.00 0.00 0.00 13 1002.8
20260510020404 73 152 0.0 3.0 0.00 0.00 0.00 13 1002.7
20260510015904 73 152 1.0 7.0 0.00 0.00 0.00 13 1002.7
20260510014904 74 251 1.0 3.0 0.00 0.00 0.00 14 1002.6
20260510014404 74 193 1.0 7.0 0.00 0.00 0.00 13 1002.4
20260510012404 75 120 3.0 12.0 0.00 0.00 0.00 12 1002.3
20260510011404 75 200 2.0 3.0 0.00 0.00 0.00 12 1002.2
20260510010904 75 228 2.0 7.0 0.00 0.00 0.00 12 1002.2
20260510010404 75 275 1.0 7.0 0.00 0.00 0.00 12 1002.1
20260510005904 76 204 2.0 7.0 0.00 0.00 0.00 12 1002.2
20260510004404 76 341 2.0 12.0 0.00 0.00 0.00 11 1002.1
20260510002904 77 260 2.0 9.0 0.00 0.00 0.00 11 1002.2
20260510002404 78 253 3.0 9.0 0.00 0.00 0.00 11 1002.0
20260510000904 77 263 2.0 12.0 0.00 0.00 0.00 12 1001.9
20260510000404 77 306 2.0 12.0 0.00 0.00 0.00 12 1002.0
20260509235904 77 241 5.0 12.0 0.00 0.00 0.00 12 1001.9
20260509234904 77 206 3.0 12.0 0.00 0.00 0.00 12 1001.8
20260509234404 77 251 5.0 13.0 0.00 0.00 0.00 11 1001.8
20260509232403 79 252 4.0 12.0 0.00 0.00 0.00 12 1001.6
20260509231904 79 269 3.0 12.0 0.00 0.00 0.00 12 1001.6
20260509231404 78 261 1.0 8.0 0.00 0.00 0.00 12 1001.7
20260509230904 79 271 4.0 12.0 0.00 0.00 0.00 11 1001.6
20260509230404 79 258 4.0 12.0 0.00 0.00 0.00 11 1001.6
20260509224404 81 313 3.0 16.0 0.00 0.00 0.00 10 1001.5
20260509223404 81 357 3.0 12.0 0.00 0.00 0.00 12 1001.5
20260509222404 80 227 4.0 12.0 0.00 0.00 0.00 11 1001.7
20260509221403 80 250 5.0 13.0 0.00 0.00 0.00 11 1001.9